Current Weather Conditions by Major Hwy


I-84 West to East [Columbia River Gorge] 300 AM PDT WED SEP 26 2018 ELEVA CITY SKY/WX TMP DP RH WIND PRES REMARKS 10 ASTORIA, OR CLEAR 48 47 96 CALM 30.17S 20 KELSO CLEAR 55 49 80 CALM 30.21S 40 PORTLAND, OR CLEAR 54 48 80 W3 30.17R 30 TROUTDALE, OR CLEAR 51 47 86 CALM 30.16S 240 THE DALLES, OR CLEAR 49 35 58 CALM 30.23R 620 HERMISTON, OR PTCLDY 40 32 73 SE3 30.21S 1,480 PENDLETON, OR PTCLDY 49 32 52 SE9 30.21S 2,710 LA GRANDE PTCLDY 39 29 67 CALM 30.28S 3,370 BAKER CITY CLEAR 34 27 75 CALM 30.28S 2,190 ONTARIO CLEAR 41 30 65 CALM 30.25S
I-90 West to East 300 AM PDT WED SEP 26 2018 ELEVA CITY SKY/WX TMP DP RH WIND PRES REMARKS 30 SEATAC AIRPORT CLEAR 53 48 83 N3 30.24S 1,730 ELLENSBURG PTCLDY 44 35 70 CALM 30.24F 1,200 MOSES LAKE PTCLDY 43 33 68 N5 30.22S 1,880 SPOKANE GEIGER PTCLDY 47 29 49 S7 30.23F
I-82 North West to South East 300 AM PDT WED SEP 26 2018 ELEVA CITY SKY/WX TMP DP RH WIND PRES REMARKS 1,730 ELLENSBURG PTCLDY 44 35 70 CALM 30.24F 1,050 YAKIMA TC NOT AVBL 720 360 PASCO PTCLDY 43 40 89 CALM 30.22S FOG 620 HERMISTON, OR PTCLDY 40 32 73 SE3 30.21S
Hwy97 North to South 300 AM PDT WED SEP 26 2018 ELEVA CITY SKY/WX TMP DP RH WIND PRES REMARKS 850 OMAK CLEAR 48 38 68 N7 30.24S 630 WENATCHEE CLEAR 54 38 54 NW7 30.22F 1,730 ELLENSBURG PTCLDY 44 35 70 CALM 30.24F 1,050 YAKIMA TC NOT AVBL 1,640 GOLDENDALE* CLEAR 49 35 58 CALM 30.23R *From Dallesport Airport Elev 240 3,080 REDMOND CLEAR 38 23 55 CALM 30.26S 4,100 KLAMATH FALLS PTCLDY 49 29 46 N9 30.23S
I-5 North to South 300 AM PDT WED SEP 26 2018 ELEVA CITY SKY/WX TMP DP RH WIND PRES REMARKS 150 BELLINGHAM CLEAR 47 44 90 CALM 30.24S 100 ARLINGTON CLEAR 45 45 100 NW3 30.25S 610 EVERETT CLEAR 51 50 96 NW3 30.25S 30 SEATAC AIRPORT CLEAR 53 48 83 N3 30.24S 200 OLYMPIA CLEAR 44 42 93 CALM 30.24S FOG 20 KELSO CLEAR 55 49 80 CALM 30.21S 100 VANCOUVER CLEAR 54 48 80 CALM 30.16S 40 PORTLAND CLEAR 54 48 80 W3 30.17R 200 SALEM CLEAR 50 42 74 CALM 30.13R 360 EUGENE CLEAR 48 38 68 S3 30.12S 510 ROSEBURG CLEAR 50 40 68 CALM 30.10S 1,300 MEDFORD CLEAR 52 35 52 CALM 30.09R HAZE
Data from:
http://www.wrh.noaa.gov/sew/get.php?pil=RWR&sid=OR&version=0&format=printer
http://www.wrh.noaa.gov/sew/get.php?pil=RWR&sid=WA&version=0&format=printer

Current Observations

Washington State Current Weather Observations   …  Oregon State Current Weather Observation



48 Hour Forecast

Seattle  …  Vancouver  …  Portland
————————————————————————————————————————
Bend  …  Spokane  …  Richland  …  Pendleton  …  Blue Mountains I-84  …  Yakima
————————————————————————————————————————
Goldendale, Washington Higher Elevations  …  Dallesport Airport - Goldendale  …  Bingen - White Salmon - Hood River  …  Index


Top of Page